Location: Newark
(15.4608°S, 41.1635°W)
Time: 00:13:18
(UTC+00:00)

Vanguard 3 - Pass Details

Date: 05 August 2021
Orbit: 510 x 3260 km, 33.3° (Epoch: 20 September)

Event Time Altitude Azimuth Distance (km) Brightness Sun altitude
Rises 14:59:29 0° 257° (WSW) 2,747 9.8 57.7°
Reaches altitude 10° 15:01:36 10° 268° (W) 1,983 9.3 57.6°
Maximum altitude 15:05:33 31° 331° (NNW) 1,336 9.5 57.5°
Drops below altitude 10° 15:11:20 10° 32° (NNE) 2,950 10.6 57.3°
Sets 15:15:14 0° 40° (NE) 4,378 11.2 57.2°
